DW8618 Nerja ES current weather conditions

sailwx.info

Wind from 270 at 0 knots gusting 3

Air temperature 20.6° C
Dewpoint 14.4° C

Last reported at 2014-Nov-24 13:45 UTC.
Time now 2014-Nov-24 14:07 UTC

Location: N 36°46' W 003°52'.
View on Google Maps.

See reports from other nearby stations

  
Tides and Currents Weather Stations Pressure Air Temp Water Temp Dewpoint Dewpoint Depression Visibility Wind Speed Wind Dir Waves Ship Positions
date/time (UTC)wind fromknots sea level pressurealtimeterstation pressurevisibilityair tempwater tempwave heightnotes
2014-Nov-24 13:45 270 0 gusting 3 20.6
2014-Nov-24 13:30 271 0 gusting 6 20.6
2014-Nov-24 13:15 284 20.6
2014-Nov-24 13:01 285 0 gusting 4 20.0
2014-Nov-24 12:45 291 20.6
2014-Nov-24 12:31 291 20.6
2014-Nov-24 12:15 291 0 gusting 4 20.6
2014-Nov-24 12:01 291 1 gusting 5 21.1
2014-Nov-24 11:45 308 20.6
2014-Nov-24 11:30 320 20.6
2014-Nov-24 11:15 327 20.6
2014-Nov-24 11:01 327 20.0
2014-Nov-24 10:46 327 19.4
2014-Nov-24 10:30 327 19.4
2014-Nov-24 10:15 327 18.9
2014-Nov-24 10:01 328 19.4
2014-Nov-24 09:46 328 18.9
2014-Nov-24 09:30 328 18.9
2014-Nov-24 09:15 328 18.9
2014-Nov-24 09:01 328 18.3
2014-Nov-24 08:45 328 2 gusting 6 17.8
2014-Nov-24 08:31 323 3 gusting 6 17.8
2014-Nov-24 08:15 347 4 gusting 6 17.2
2014-Nov-24 08:01 360 2 gusting 5 17.2
2014-Nov-24 07:45 011 2 gusting 4 16.7
2014-Nov-24 07:30 011 16.7
2014-Nov-24 07:15 011 2 gusting 3 16.7
2014-Nov-24 07:01 011 17.2
2014-Nov-24 06:45 011 17.2
2014-Nov-24 06:31 011 17.2
2014-Nov-24 06:15 011 17.2
2014-Nov-24 06:01 020 4 gusting 6 17.2
2014-Nov-24 05:46 321 17.2
2014-Nov-24 05:30 321 17.2
2014-Nov-24 05:15 321 17.2
2014-Nov-24 05:01 321 17.2
2014-Nov-24 04:45 321 17.2
2014-Nov-24 04:30 321 17.2
2014-Nov-24 04:16 336 0 gusting 6 17.2
2014-Nov-24 04:01 332 2 gusting 6 17.2
2014-Nov-24 03:45 321 4 gusting 6 17.2
2014-Nov-24 03:30 297 0 gusting 6 17.8
2014-Nov-24 03:15 300 17.8
2014-Nov-24 03:01 315 0 gusting 7 17.8
2014-Nov-24 02:45 322 2 gusting 7 17.8
2014-Nov-24 02:30 304 2 gusting 12 17.8
2014-Nov-24 02:15 351 3 gusting 7 17.2
2014-Nov-24 02:01 328 0 gusting 4 16.7
2014-Nov-24 01:46 355 16.7
2014-Nov-24 01:30 342 16.7
2014-Nov-24 01:15 342 16.7
2014-Nov-24 01:01 342 16.7
2014-Nov-24 00:46 336 2 gusting 4 16.1
2014-Nov-24 00:30 340 1 gusting 4 16.1
2014-Nov-24 00:15 345 16.7
2014-Nov-24 00:01 344 16.7
2014-Nov-23 23:45 343 0 gusting 3 17.2
2014-Nov-23 23:30 346 17.2
2014-Nov-23 23:15 347 17.8
2014-Nov-23 23:01 347 17.2
2014-Nov-23 22:45 347 17.2
2014-Nov-23 22:31 350 17.2
2014-Nov-23 22:16 333 17.8
2014-Nov-23 22:01 333 17.8
2014-Nov-23 21:46 341 18.3
2014-Nov-23 21:30 341 18.3
2014-Nov-23 21:15 341 18.3
2014-Nov-23 21:01 341 18.3
2014-Nov-23 20:45 341 18.3
2014-Nov-23 20:30 341 17.8
2014-Nov-23 20:16 341 17.8
2014-Nov-23 20:01 338 17.8
2014-Nov-23 19:45 333 18.3
2014-Nov-23 19:30 333 18.3
2014-Nov-23 19:15 348 18.3
2014-Nov-23 18:45 355 18.9
2014-Nov-23 18:30 355 18.9
2014-Nov-23 18:16 005 18.9
2014-Nov-23 18:01 005 18.9
2014-Nov-23 17:45 023 19.4
2014-Nov-23 17:30 023 19.4
2014-Nov-23 17:15 023 19.4
2014-Nov-23 17:01 070 19.4
2014-Nov-23 16:45 103 20.0
2014-Nov-23 16:31 102 20.0
2014-Nov-23 16:15 101 20.6
2014-Nov-23 16:01 099 20.6
2014-Nov-23 15:45 136 0 gusting 4 20.6
2014-Nov-23 15:30 138 1 gusting 7 21.1
2014-Nov-23 15:15 132 1 gusting 6 21.7
2014-Nov-23 15:01 157 2 gusting 8 21.1
2014-Nov-23 14:45 161 2 gusting 7 21.1
2014-Nov-23 14:30 139 3 gusting 8 22.2
2014-Nov-23 14:15 134 3 gusting 9 22.2
2014-Nov-23 14:01 180 2 gusting 8 22.8
2014-Nov-23 13:45 137 1 gusting 9 22.8
2014-Nov-23 13:30 157 4 gusting 11 22.2
2014-Nov-23 13:15 104 2 gusting 8 22.2
2014-Nov-23 13:01 142 5 gusting 13 22.2
2014-Nov-23 12:45 124 6 gusting 11 22.8
2014-Nov-23 12:30 167 5 gusting 11 22.2
2014-Nov-23 12:16 150 3 gusting 10 22.2
2014-Nov-23 12:01 109 3 gusting 8 22.2
2014-Nov-23 11:45 102 1 gusting 6 22.2
2014-Nov-23 11:31 129 0 gusting 6 22.2
2014-Nov-23 11:15 132 21.1
2014-Nov-23 11:01 117 2 gusting 8 21.1
2014-Nov-23 10:45 136 1 gusting 8 21.7
2014-Nov-23 10:30 116 1 gusting 9 22.2
2014-Nov-23 10:15 141 2 gusting 9 22.2
2014-Nov-23 10:01 138 3 gusting 10 22.2
2014-Nov-23 09:45 129 5 gusting 13 22.2
2014-Nov-23 09:31 154 4 gusting 9 22.8
2014-Nov-23 09:15 144 4 gusting 13 22.8
2014-Nov-23 09:01 129 4 gusting 13 22.8
2014-Nov-23 08:45 101 1 gusting 11 22.2
2014-Nov-23 08:30 097 4 gusting 9 22.2
2014-Nov-23 08:15 134 2 gusting 13 21.7
2014-Nov-23 08:01 126 4 gusting 12 21.7
2014-Nov-23 07:46 055 4 gusting 9 21.7
2014-Nov-23 07:30 125 4 gusting 13 21.7
2014-Nov-23 07:16 172 3 gusting 15 21.7
2014-Nov-23 07:01 134 2 gusting 11 21.7
2014-Nov-23 06:45 168 3 gusting 13 21.7
2014-Nov-23 06:31 107 3 gusting 13 21.7
2014-Nov-23 06:15 125 4 gusting 14 21.7
2014-Nov-23 06:01 135 5 gusting 15 21.7
2014-Nov-23 05:45 057 6 gusting 15 21.7
2014-Nov-23 05:30 096 3 gusting 12 21.7
2014-Nov-23 05:16 120 7 gusting 15 21.7
2014-Nov-23 05:02 067 9 gusting 16 22.2
2014-Nov-23 04:45 071 3 gusting 15 22.2
2014-Nov-23 04:30 096 5 gusting 14 22.2
2014-Nov-23 04:15 191 0 gusting 15 22.2
2014-Nov-23 04:01 125 4 gusting 12 22.2
2014-Nov-23 03:46 096 6 gusting 14 22.2
2014-Nov-23 03:30 104 5 gusting 19 22.2
2014-Nov-23 03:15 119 0 gusting 13 22.2
2014-Nov-23 03:01 134 5 gusting 19 22.2
2014-Nov-23 02:45 127 7 gusting 16 22.2
2014-Nov-23 02:30 119 5 gusting 18 22.2
2014-Nov-23 02:15 123 3 gusting 12 22.2
2014-Nov-23 02:01 126 5 gusting 14 22.2
2014-Nov-23 01:30 111 6 gusting 19 22.8
2014-Nov-23 01:16 118 1 gusting 12 22.8
2014-Nov-23 01:01 098 6 gusting 18 22.8
2014-Nov-23 00:46 125 6 gusting 15 22.2
2014-Nov-23 00:31 094 7 gusting 17 22.2
2014-Nov-23 00:15 114 9 gusting 20 22.2
2014-Nov-23 00:01 057 9 gusting 19 22.8
2014-Nov-22 23:45 116 8 gusting 25 22.8
2014-Nov-22 23:30 118 12 gusting 25 23.3
2014-Nov-22 23:15 088 8 gusting 29 23.3
2014-Nov-22 23:01 130 10 gusting 27 23.3
2014-Nov-22 22:45 136 10 gusting 24 23.9
2014-Nov-22 22:30 129 15 gusting 26 23.9
2014-Nov-22 22:16 078 10 gusting 23 23.9
2014-Nov-22 22:01 080 13 gusting 28 23.9
2014-Nov-22 21:46 088 11 gusting 24 23.9
2014-Nov-22 21:31 202 8 gusting 23 24.4
2014-Nov-22 21:15 137 11 gusting 28 24.4
2014-Nov-22 21:01 121 11 gusting 22 24.4
2014-Nov-22 20:45 097 10 gusting 26 25.0
2014-Nov-22 20:30 153 13 gusting 33 25.0
2014-Nov-22 20:15 128 13 gusting 23 25.0
2014-Nov-22 20:01 113 12 gusting 23 25.0
2014-Nov-22 19:45 090 8 gusting 30 25.0
2014-Nov-22 19:30 149 10 gusting 23 25.6
2014-Nov-22 19:15 082 8 gusting 22 25.6
2014-Nov-22 19:01 120 7 gusting 28 26.1
2014-Nov-22 18:45 114 6 gusting 22 26.1
2014-Nov-22 18:30 060 9 gusting 23 26.1
2014-Nov-22 18:16 096 9 gusting 27 26.1
2014-Nov-22 18:01 152 6 gusting 21 26.1
2014-Nov-22 17:45 111 7 gusting 19 26.1
2014-Nov-22 17:30 126 7 gusting 20 26.7
2014-Nov-22 17:15 184 6 gusting 21 26.7
2014-Nov-22 17:01 144 7 gusting 19 26.7
2014-Nov-22 16:45 142 7 gusting 22 26.7
2014-Nov-22 16:31 044 6 gusting 19 26.1
2014-Nov-22 16:16 126 6 gusting 14 25.6
2014-Nov-22 16:01 142 6 gusting 18 25.6
2014-Nov-22 15:46 083 6 gusting 19 25.6
2014-Nov-22 15:30 106 6 gusting 19 24.4
2014-Nov-22 15:15 118 6 gusting 19 24.4
2014-Nov-22 15:01 104 5 gusting 13 25.0
2014-Nov-22 14:45 120 2 gusting 7 23.9
2014-Nov-22 14:31 139 4 gusting 11 26.1
2014-Nov-22 14:16 115 5 gusting 12 26.1
2014-Nov-22 14:01 184 5 gusting 15 26.1